| time (UTC) | temp C | wind direction | speed KPH | gust KPH | rain 1hr cm | rain 24hr cm | rain mn cm | humidity % | barometer mb |
| 20260504035850 | 11 | 199 | 1.6 | 3.2 | 0.00 | 0.00 | 0.00 | 72 | 1004.7 |
| 20260504035352 | 11 | 199 | 0.0 | 0.0 | 0.00 | 0.00 | 0.00 | 72 | 1004.6 |
| 20260504034827 | 12 | 199 | 0.0 | 0.0 | 0.00 | 0.00 | 0.00 | 71 | 1004.6 |
| 20260504034350 | 12 | 199 | 0.0 | 0.0 | 0.00 | 0.00 | 0.00 | 71 | 1004.7 |
| 20260504033831 | 12 | 199 | 0.0 | 0.0 | 0.00 | 0.00 | 0.00 | 71 | 1004.7 |
| 20260504033333 | 12 | 199 | 0.0 | 1.6 | 0.00 | 0.00 | 0.00 | 72 | 1004.8 |
| 20260504032836 | 12 | 199 | 0.0 | 1.6 | 0.00 | 0.00 | 0.00 | 72 | 1004.8 |
| 20260504032336 | 12 | 199 | 0.0 | 0.0 | 0.00 | 0.00 | 0.00 | 70 | 1004.8 |
| 20260504031838 | 12 | 199 | 0.0 | 0.0 | 0.00 | 0.00 | 0.00 | 70 | 1004.8 |
| 20260504031349 | 12 | 199 | 0.0 | 0.0 | 0.00 | 0.00 | 0.00 | 71 | 1004.7 |
| 20260504030849 | 13 | 199 | 0.0 | 0.0 | 0.00 | 0.00 | 0.00 | 71 | 1004.8 |
| 20260504030353 | 13 | 199 | 0.0 | 0.0 | 0.00 | 0.00 | 0.00 | 70 | 1004.8 |
| 20260504025843 | 13 | 199 | 0.0 | 0.0 | 0.00 | 0.00 | 0.00 | 69 | 1004.7 |
| 20260504025343 | 13 | 199 | 0.0 | 0.0 | 0.00 | 0.00 | 0.00 | 68 | 1004.8 |
| 20260504024825 | 13 | 199 | 0.0 | 0.0 | 0.00 | 0.00 | 0.00 | 65 | 1004.7 |
| 20260504024356 | 13 | 199 | 0.0 | 0.0 | 0.00 | 0.00 | 0.00 | 65 | 1004.7 |
| 20260504023837 | 14 | 199 | 0.0 | 0.0 | 0.00 | 0.00 | 0.00 | 65 | 1004.7 |
| 20260504023339 | 14 | 199 | 0.0 | 0.0 | 0.00 | 0.00 | 0.00 | 65 | 1004.7 |
| 20260504022850 | 14 | 199 | 0.0 | 0.0 | 0.00 | 0.00 | 0.00 | 64 | 1004.6 |
| 20260504022331 | 15 | 199 | 0.0 | 0.0 | 0.00 | 0.00 | 0.00 | 63 | 1004.6 |
| 20260504021827 | 15 | 199 | 0.0 | 0.0 | 0.00 | 0.00 | 0.00 | 62 | 1004.6 |
| 20260504021329 | 15 | 199 | 0.0 | 0.0 | 0.00 | 0.00 | 0.00 | 60 | 1004.6 |
| 20260504020830 | 15 | 199 | 0.0 | 0.0 | 0.00 | 0.00 | 0.00 | 58 | 1004.6 |
| 20260504020332 | 15 | 199 | 0.0 | 0.0 | 0.00 | 0.00 | 0.00 | 56 | 1004.6 |
| 20260504015832 | 16 | 199 | 0.0 | 0.0 | 0.00 | 0.00 | 0.00 | 56 | 1004.6 |
| 20260504015404 | 16 | 199 | 0.0 | 3.2 | 0.00 | 0.00 | 0.00 | 55 | 1004.5 |
| 20260504014400 | 16 | 199 | 0.0 | 1.6 | 0.00 | 0.00 | 0.00 | 53 | 1004.5 |
| 20260504013909 | 17 | 199 | 0.0 | 0.0 | 0.00 | 0.00 | 0.00 | 53 | 1004.6 |
| 20260504013350 | 17 | 199 | 0.0 | 0.0 | 0.00 | 0.00 | 0.00 | 52 | 1004.6 |
| 20260504012844 | 17 | 199 | 0.0 | 0.0 | 0.00 | 0.00 | 0.00 | 52 | 1004.6 |
| 20260504012326 | 17 | 199 | 0.0 | 1.6 | 0.00 | 0.00 | 0.00 | 51 | 1004.5 |
| 20260504011856 | 17 | 199 | 0.0 | 1.6 | 0.00 | 0.00 | 0.00 | 52 | 1004.4 |
| 20260504011347 | 17 | 199 | 0.0 | 3.2 | 0.00 | 0.00 | 0.00 | 52 | 1004.4 |
| 20260504010847 | 17 | 199 | 0.0 | 3.2 | 0.00 | 0.00 | 0.00 | 51 | 1004.4 |
| 20260504010327 | 18 | 199 | 1.6 | 3.2 | 0.00 | 0.00 | 0.00 | 49 | 1004.4 |
| 20260504005341 | 18 | 199 | 3.2 | 8.0 | 0.00 | 0.00 | 0.00 | 50 | 1004.3 |
| 20260504004841 | 18 | 199 | 4.8 | 9.7 | 0.00 | 0.00 | 0.00 | 48 | 1004.3 |
| 20260504004341 | 18 | 196 | 6.4 | 9.7 | 0.00 | 0.00 | 0.00 | 46 | 1004.2 |
| 20260504003841 | 18 | 205 | 6.4 | 11.3 | 0.00 | 0.00 | 0.00 | 47 | 1004.2 |
| 20260504003412 | 18 | 204 | 8.0 | 11.3 | 0.00 | 0.00 | 0.00 | 46 | 1004.2 |
| 20260504002849 | 18 | 217 | 8.0 | 14.5 | 0.00 | 0.00 | 0.00 | 46 | 1004.2 |
| 20260504002349 | 18 | 219 | 8.0 | 14.5 | 0.00 | 0.00 | 0.00 | 47 | 1004.2 |
| 20260504001830 | 19 | 218 | 11.3 | 22.5 | 0.00 | 0.00 | 0.00 | 46 | 1004.2 |
| 20260504001332 | 19 | 222 | 14.5 | 22.5 | 0.00 | 0.00 | 0.00 | 44 | 1004.1 |
| 20260504000833 | 19 | 209 | 14.5 | 22.5 | 0.00 | 0.00 | 0.00 | 45 | 1004.2 |
| 20260504000332 | 19 | 213 | 14.5 | 22.5 | 0.00 | 0.00 | 0.00 | 45 | 1004.2 |
| 20260503235835 | 19 | 199 | 12.9 | 24.1 | 0.00 | 0.00 | 0.00 | 44 | 1004.2 |
| 20260503235335 | 19 | 227 | 19.3 | 29.0 | 0.00 | 0.00 | 0.00 | 44 | 1004.3 |
| 20260503234836 | 19 | 236 | 20.9 | 32.2 | 0.00 | 0.00 | 0.00 | 43 | 1004.3 |
| 20260503234331 | 19 | 227 | 24.1 | 32.2 | 0.00 | 0.00 | 0.00 | 44 | 1004.3 |
| 20260503233859 | 19 | 234 | 20.9 | 32.2 | 0.00 | 0.00 | 0.00 | 44 | 1004.3 |
| 20260503232905 | 19 | 250 | 17.7 | 30.6 | 0.00 | 0.00 | 0.00 | 43 | 1004.4 |
| 20260503232327 | 19 | 201 | 20.9 | 33.8 | 0.00 | 0.00 | 0.00 | 44 | 1004.4 |
| 20260503231828 | 19 | 182 | 20.9 | 38.6 | 0.00 | 0.00 | 0.00 | 44 | 1004.5 |
| 20260503231359 | 19 | 227 | 19.3 | 38.6 | 0.00 | 0.00 | 0.00 | 44 | 1004.5 |
| 20260503230833 | 19 | 199 | 19.3 | 35.4 | 0.00 | 0.00 | 0.00 | 43 | 1004.5 |
| 20260503230334 | 19 | 229 | 20.9 | 37.0 | 0.00 | 0.00 | 0.00 | 44 | 1004.6 |
| 20260503225904 | 19 | 213 | 27.4 | 40.2 | 0.00 | 0.00 | 0.00 | 43 | 1004.5 |
| 20260503225343 | 19 | 201 | 20.9 | 37.0 | 0.00 | 0.00 | 0.00 | 44 | 1004.6 |
| 20260503224825 | 19 | 233 | 25.7 | 37.0 | 0.00 | 0.00 | 0.00 | 44 | 1004.7 |
| 20260503224326 | 19 | 208 | 22.5 | 29.0 | 0.00 | 0.00 | 0.00 | 45 | 1004.6 |
| 20260503223857 | 19 | 205 | 22.5 | 32.2 | 0.00 | 0.00 | 0.00 | 45 | 1004.7 |
| 20260503223337 | 19 | 211 | 20.9 | 40.2 | 0.00 | 0.00 | 0.00 | 44 | 1004.6 |
| 20260503222848 | 18 | 205 | 27.4 | 40.2 | 0.00 | 0.00 | 0.00 | 44 | 1004.7 |
| 20260503222344 | 18 | 210 | 19.3 | 37.0 | 0.00 | 0.00 | 0.00 | 44 | 1004.7 |
| 20260503221846 | 18 | 221 | 25.7 | 37.0 | 0.00 | 0.00 | 0.00 | 45 | 1004.9 |
| 20260503221340 | 18 | 226 | 22.5 | 40.2 | 0.00 | 0.00 | 0.00 | 46 | 1004.8 |
| 20260503220849 | 18 | 221 | 22.5 | 40.2 | 0.00 | 0.00 | 0.00 | 45 | 1004.9 |
| 20260503220347 | 18 | 200 | 24.1 | 37.0 | 0.00 | 0.00 | 0.00 | 46 | 1004.7 |
| 20260503215827 | 18 | 206 | 25.7 | 40.2 | 0.00 | 0.00 | 0.00 | 45 | 1004.9 |
| 20260503215357 | 18 | 201 | 30.6 | 38.6 | 0.00 | 0.00 | 0.00 | 45 | 1005.1 |
| 20260503214835 | 18 | 208 | 24.1 | 38.6 | 0.00 | 0.00 | 0.00 | 45 | 1004.8 |
| 20260503214352 | 18 | 197 | 24.1 | 40.2 | 0.00 | 0.00 | 0.00 | 46 | 1004.8 |
| 20260503213852 | 18 | 201 | 24.1 | 43.5 | 0.00 | 0.00 | 0.00 | 46 | 1004.9 |
| 20260503213352 | 18 | 205 | 27.4 | 43.5 | 0.00 | 0.00 | 0.00 | 47 | 1005.0 |
| 20260503212826 | 18 | 173 | 19.3 | 45.1 | 0.00 | 0.00 | 0.00 | 46 | 1005.1 |
| 20260503212326 | 18 | 182 | 27.4 | 45.1 | 0.00 | 0.00 | 0.00 | 46 | 1005.2 |
| 20260503211826 | 18 | 213 | 22.5 | 38.6 | 0.00 | 0.00 | 0.00 | 47 | 1005.1 |
| 20260503211326 | 17 | 196 | 27.4 | 38.6 | 0.00 | 0.00 | 0.00 | 47 | 1005.2 |
| 20260503210826 | 17 | 215 | 22.5 | 40.2 | 0.00 | 0.00 | 0.00 | 46 | 1005.2 |
| 20260503210325 | 17 | 205 | 32.2 | 40.2 | 0.00 | 0.00 | 0.00 | 46 | 1005.3 |
| 20260503205827 | 17 | 221 | 27.4 | 46.7 | 0.00 | 0.00 | 0.00 | 46 | 1005.5 |
| 20260503205325 | 17 | 197 | 25.7 | 51.5 | 0.00 | 0.00 | 0.00 | 46 | 1005.5 |
| 20260503204854 | 17 | 205 | 30.6 | 51.5 | 0.00 | 0.00 | 0.00 | 46 | 1005.6 |
| 20260503204326 | 17 | 185 | 16.1 | 35.4 | 0.00 | 0.00 | 0.00 | 47 | 1005.6 |
| 20260503203853 | 17 | 207 | 24.1 | 35.4 | 0.00 | 0.00 | 0.00 | 46 | 1005.7 |
| 20260503203352 | 17 | 182 | 25.7 | 48.3 | 0.00 | 0.00 | 0.00 | 46 | 1005.7 |
| 20260503202914 | 17 | 201 | 32.2 | 48.3 | 0.00 | 0.00 | 0.00 | 47 | 1005.8 |
| 20260503202351 | 17 | 199 | 19.3 | 46.7 | 0.00 | 0.00 | 0.00 | 47 | 1006.0 |
| 20260503201852 | 17 | 211 | 29.0 | 45.1 | 0.00 | 0.00 | 0.00 | 46 | 1006.1 |
| 20260503201327 | 17 | 210 | 33.8 | 45.1 | 0.00 | 0.00 | 0.00 | 47 | 1006.0 |
| 20260503200853 | 17 | 185 | 16.1 | 35.4 | 0.00 | 0.00 | 0.00 | 52 | 1006.2 |
| 20260503200353 | 16 | 185 | 14.5 | 30.6 | 0.00 | 0.00 | 0.00 | 52 | 1006.4 |
| 20260503195825 | 16 | 187 | 19.3 | 40.2 | 0.00 | 0.00 | 0.00 | 52 | 1006.5 |
| 20260503195328 | 16 | 205 | 24.1 | 40.2 | 0.00 | 0.00 | 0.00 | 54 | 1006.6 |
| 20260503194826 | 16 | 209 | 24.1 | 35.4 | 0.00 | 0.00 | 0.00 | 55 | 1006.7 |
| 20260503194327 | 16 | 176 | 17.7 | 51.5 | 0.00 | 0.00 | 0.00 | 54 | 1006.8 |
| 20260503193826 | 16 | 193 | 17.7 | 51.5 | 0.00 | 0.00 | 0.00 | 54 | 1006.9 |
| 20260503193325 | 16 | 194 | 24.1 | 41.8 | 0.00 | 0.00 | 0.00 | 53 | 1007.1 |
| 20260503192826 | 16 | 178 | 25.7 | 33.8 | 0.00 | 0.00 | 0.00 | 53 | 1007.2 |
| 20260503192327 | 16 | 183 | 19.3 | 48.3 | 0.00 | 0.00 | 0.00 | 53 | 1007.1 |
| 20260503191853 | 16 | 217 | 29.0 | 57.9 | 0.00 | 0.00 | 0.00 | 53 | 1007.2 |
| 20260503191352 | 16 | 193 | 37.0 | 57.9 | 0.00 | 0.00 | 0.00 | 52 | 1007.1 |
| 20260503190851 | 16 | 190 | 32.2 | 43.5 | 0.00 | 0.00 | 0.00 | 49 | 1007.2 |
| 20260503190352 | 16 | 184 | 25.7 | 56.3 | 0.00 | 0.00 | 0.00 | 50 | 1007.3 |
| 20260503185827 | 16 | 201 | 35.4 | 61.2 | 0.00 | 0.00 | 0.00 | 48 | 1007.3 |
| 20260503185328 | 16 | 170 | 25.7 | 38.6 | 0.00 | 0.00 | 0.00 | 48 | 1007.3 |
| 20260503184827 | 16 | 191 | 22.5 | 37.0 | 0.00 | 0.00 | 0.00 | 49 | 1007.3 |
| 20260503184328 | 16 | 190 | 22.5 | 37.0 | 0.00 | 0.00 | 0.00 | 50 | 1007.3 |
| 20260503183854 | 16 | 192 | 22.5 | 40.2 | 0.00 | 0.00 | 0.00 | 50 | 1007.3 |
| 20260503183334 | 16 | 192 | 22.5 | 48.3 | 0.00 | 0.00 | 0.00 | 50 | 1007.4 |
| 20260503182835 | 16 | 205 | 38.6 | 51.5 | 0.00 | 0.00 | 0.00 | 49 | 1007.4 |
| 20260503182335 | 16 | 180 | 24.1 | 46.7 | 0.00 | 0.00 | 0.00 | 48 | 1007.5 |
| 20260503181835 | 16 | 160 | 17.7 | 48.3 | 0.00 | 0.00 | 0.00 | 49 | 1007.5 |
| 20260503181337 | 16 | 210 | 29.0 | 49.9 | 0.00 | 0.00 | 0.00 | 48 | 1007.5 |
| 20260503180836 | 16 | 177 | 20.9 | 40.2 | 0.00 | 0.00 | 0.00 | 49 | 1007.7 |
| 20260503180335 | 15 | 161 | 16.1 | 40.2 | 0.00 | 0.00 | 0.00 | 51 | 1007.7 |
| 20260503175836 | 15 | 174 | 14.5 | 27.4 | 0.00 | 0.00 | 0.00 | 52 | 1007.8 |
| 20260503175334 | 15 | 205 | 14.5 | 32.2 | 0.00 | 0.00 | 0.00 | 54 | 1007.9 |
| 20260503174836 | 15 | 147 | 14.5 | 38.6 | 0.00 | 0.00 | 0.00 | 54 | 1008.0 |
| 20260503174353 | 15 | 178 | 22.5 | 49.9 | 0.00 | 0.00 | 0.00 | 53 | 1008.0 |
| 20260503173853 | 15 | 194 | 27.4 | 49.9 | 0.00 | 0.00 | 0.00 | 53 | 1008.2 |
| 20260503173352 | 14 | 182 | 20.9 | 35.4 | 0.00 | 0.00 | 0.00 | 57 | 1008.2 |
| 20260503172828 | 14 | 180 | 16.1 | 35.4 | 0.00 | 0.00 | 0.00 | 58 | 1008.4 |
| 20260503172327 | 13 | 180 | 20.9 | 35.4 | 0.00 | 0.00 | 0.00 | 58 | 1008.5 |
| 20260503171826 | 13 | 176 | 12.9 | 24.1 | 0.00 | 0.00 | 0.00 | 58 | 1008.6 |
| 20260503171328 | 13 | 180 | 17.7 | 41.8 | 0.00 | 0.00 | 0.00 | 58 | 1008.7 |
| 20260503170914 | 13 | 180 | 25.7 | 45.1 | 0.00 | 0.00 | 0.00 | 57 | 1008.7 |
| 20260503170352 | 13 | 192 | 17.7 | 33.8 | 0.00 | 0.00 | 0.00 | 59 | 1008.9 |
| 20260503150915 | 12 | 182 | 22.5 | 41.8 | 0.00 | 0.00 | 0.00 | 64 | 1010.6 |
| 20260503150352 | 12 | 194 | 29.0 | 41.8 | 0.00 | 0.00 | 0.00 | 63 | 1010.7 |
| 20260503131345 | 11 | 212 | 25.7 | 40.2 | 0.00 | 0.00 | 0.00 | 59 | 1011.6 |
| 20260503130844 | 11 | 204 | 25.7 | 38.6 | 0.00 | 0.00 | 0.00 | 58 | 1011.6 |
| 20260503110336 | 10 | 197 | 17.7 | 27.4 | 0.00 | 0.03 | 0.00 | 55 | 1011.4 |
| 20260503090352 | 9 | 192 | 11.3 | 20.9 | 0.00 | 0.03 | 0.00 | 55 | 1012.2 |
| 20260503081355 | 9 | 210 | 12.9 | 24.1 | 0.00 | 0.03 | 0.00 | 55 | 1012.7 |
| 20260503080833 | 9 | 180 | 12.9 | 22.5 | 0.00 | 0.03 | 0.00 | 56 | 1012.7 |
| 20260503080357 | 9 | 191 | 16.1 | 22.5 | 0.00 | 0.03 | 0.00 | 54 | 1012.7 |
| 20260503072833 | 8 | 213 | 9.7 | 16.1 | 0.00 | 0.03 | 0.00 | 56 | 1012.9 |
| 20260503072330 | 8 | 197 | 11.3 | 16.1 | 0.00 | 0.03 | 0.00 | 58 | 1012.9 |
| 20260503071829 | 8 | 203 | 11.3 | 17.7 | 0.00 | 0.03 | 0.00 | 58 | 1013.0 |
| 20260503071331 | 8 | 197 | 11.3 | 17.7 | 0.00 | 0.03 | 0.00 | 55 | 1012.9 |
| 20260503070832 | 8 | 197 | 11.3 | 17.7 | 0.00 | 0.03 | 0.00 | 56 | 1013.0 |
| 20260503070330 | 8 | 204 | 9.7 | 16.1 | 0.00 | 0.03 | 0.00 | 56 | 1013.0 |
| 20260503054852 | 8 | 180 | 8.0 | 14.5 | 0.00 | 0.03 | 0.00 | 55 | 1013.6 |
| 20260503054413 | 8 | 191 | 9.7 | 14.5 | 0.00 | 0.03 | 0.00 | 55 | 1013.7 |
| 20260503053853 | 8 | 202 | 9.7 | 14.5 | 0.00 | 0.03 | 0.00 | 56 | 1013.7 |
| 20260503053350 | 8 | 186 | 9.7 | 14.5 | 0.00 | 0.03 | 0.00 | 57 | 1013.8 |
| 20260503052832 | 8 | 182 | 8.0 | 16.1 | 0.00 | 0.03 | 0.00 | 56 | 1013.7 |
| 20260503052402 | 8 | 203 | 9.7 | 16.1 | 0.00 | 0.03 | 0.00 | 56 | 1013.8 |
| 20260503051836 | 8 | 190 | 11.3 | 16.1 | 0.00 | 0.03 | 0.00 | 56 | 1013.8 |
| 20260503051337 | 8 | 177 | 12.9 | 16.1 | 0.00 | 0.03 | 0.00 | 55 | 1013.8 |
| 20260503050838 | 8 | 208 | 12.9 | 16.1 | 0.00 | 0.03 | 0.00 | 54 | 1013.9 |
| 20260503050339 | 9 | 199 | 11.3 | 17.7 | 0.00 | 0.03 | 0.00 | 54 | 1013.9 |
| 20260503045832 | 9 | 192 | 11.3 | 16.1 | 0.00 | 0.03 | 0.03 | 54 | 1013.9 |
| 20260503045332 | 9 | 192 | 9.7 | 19.3 | 0.00 | 0.03 | 0.03 | 54 | 1013.9 |
| 20260503044831 | 9 | 187 | 9.7 | 19.3 | 0.00 | 0.03 | 0.03 | 54 | 1013.9 |
| 20260503044333 | 9 | 196 | 9.7 | 16.1 | 0.00 | 0.03 | 0.03 | 53 | 1013.9 |
| 20260503043835 | 9 | 196 | 9.7 | 16.1 | 0.00 | 0.03 | 0.03 | 55 | 1014.0 |
| 20260503043335 | 9 | 208 | 11.3 | 16.1 | 0.00 | 0.03 | 0.03 | 53 | 1013.9 |
| 20260503042854 | 9 | 190 | 8.0 | 16.1 | 0.00 | 0.03 | 0.03 | 54 | 1014.0 |
| 20260503042354 | 9 | 190 | 9.7 | 12.9 | 0.00 | 0.03 | 0.03 | 54 | 1014.0 |
| 20260503041854 | 9 | 197 | 9.7 | 12.9 | 0.00 | 0.03 | 0.03 | 55 | 1014.1 |
| 20260503041346 | 10 | 179 | 9.7 | 14.5 | 0.00 | 0.03 | 0.03 | 55 | 1014.1 |
| 20260503040827 | 10 | 194 | 9.7 | 14.5 | 0.00 | 0.03 | 0.03 | 55 | 1014.1 |
| 20260503040327 | 10 | 192 | 9.7 | 14.5 | 0.00 | 0.03 | 0.03 | 55 | 1014.2 |